Location: *
(48.8667°N, 2.3331°E)
Time: 12:49:25
(UTC+00:00)

Cosmos 1980 Rocket - Pass Details

Date: 09 April 2020
Orbit: 829 x 850 km, 71.0° (Epoch: 27 May)

Event Time Altitude Azimuth Distance (km) Brightness Sun altitude
Rises 21:35:55 0° 332° (NNW) 3,389 6.6 -25.8°
Reaches altitude 10° 21:38:23 10° 335° (NNW) 2,454 5.6 -26.0°
Maximum altitude 21:44:00 71° 60° (ENE) 885 2.2 -26.6°
Enters shadow 21:44:15 70° 81° (E) 891 2.1 -26.6°
